Time,TemperatureF,DewpointF,PressureIn,WindDirection,WindDirectionDegrees,WindSpeedMPH,WindSpeedGustMPH,Humidity,HourlyPrecipIn,Conditions,Clouds,dailyrainin,SoftwareType,DateUTC
2013-01-23 00:01:00,55.4,36.1,30.21,NE,45,0.0,0.0,48,0.00,,---,0.00,VWS V14.00,2013-01-23 05:01:00,
2013-01-23 00:04:00,55.4,36.1,30.21,NNE,22,0.0,0.0,48,0.00,,---,0.00,VWS V14.00,2013-01-23 05:04:00,
2013-01-23 00:05:00,55.2,35.9,30.21,NNE,22,0.0,0.0,48,0.00,,---,0.00,VWS V14.00,2013-01-23 05:05:00,
2013-01-23 00:06:00,55.2,35.9,30.21,North,0,0.0,0.0,48,0.00,,---,0.00,VWS V14.00,2013-01-23 05:06:00,
2013-01-23 00:11:00,55.0,36.2,30.21,NNE,22,0.0,0.0,49,0.00,,---,0.00,VWS V14.00,2013-01-23 05:11:00,
2013-01-23 00:16:00,55.0,36.2,30.21,NNE,22,0.0,0.0,49,0.00,,---,0.00,VWS V14.00,2013-01-23 05:16:00,
2013-01-23 00:22:00,55.0,36.2,30.21,NNE,22,0.0,0.0,49,0.00,,---,0.00,VWS V14.00,2013-01-23 05:22:00,
2013-01-23 00:27:00,54.9,36.6,30.21,NNW,338,0.0,0.0,50,0.00,,---,0.00,VWS V14.00,2013-01-23 05:27:00,
2013-01-23 00:32:00,54.9,37.1,30.21,NNE,22,0.0,0.0,51,0.00,,---,0.00,VWS V14.00,2013-01-23 05:32:00,
2013-01-23 00:37:00,55.0,37.8,30.21,NNW,338,0.0,0.0,52,0.00,,---,0.00,VWS V14.00,2013-01-23 05:37:00,
2013-01-23 00:42:00,55.0,37.8,30.21,NNE,22,0.0,0.0,52,0.00,,---,0.00,VWS V14.00,2013-01-23 05:42:00,
2013-01-23 00:48:00,55.0,38.2,30.21,NNW,338,0.0,0.0,53,0.00,,---,0.00,VWS V14.00,2013-01-23 05:48:00,
2013-01-23 00:53:00,55.0,37.8,30.21,NNE,22,0.0,0.0,52,0.00,,---,0.00,VWS V14.00,2013-01-23 05:53:00,
2013-01-23 00:59:00,55.2,37.9,30.24,NNW,338,0.0,0.0,52,0.00,,---,0.00,VWS V14.00,2013-01-23 05:59:00,
2013-01-23 01:04:00,55.0,37.8,30.24,North,0,1.3,1.6,52,0.00,,---,0.00,VWS V14.00,2013-01-23 06:04:00,
2013-01-23 01:09:00,55.0,37.8,30.24,NNE,22,2.5,2.5,52,0.00,,---,0.00,VWS V14.00,2013-01-23 06:09:00,
2013-01-23 01:14:00,55.0,38.2,30.24,North,0,2.7,2.7,53,0.00,,---,0.00,VWS V14.00,2013-01-23 06:14:00,
2013-01-23 01:20:00,55.0,38.2,30.21,NNW,338,0.0,3.4,53,0.00,,---,0.00,VWS V14.00,2013-01-23 06:20:00,
2013-01-23 01:25:00,55.0,38.2,30.21,NNE,22,1.3,1.3,53,0.00,,---,0.00,VWS V14.00,2013-01-23 06:25:00,
2013-01-23 01:32:00,54.9,37.6,30.21,NE,45,2.5,2.5,52,0.00,,---,0.00,VWS V14.00,2013-01-23 06:32:00,
2013-01-23 01:37:00,54.7,37.9,30.21,NNE,22,1.3,1.3,53,0.00,,---,0.00,VWS V14.00,2013-01-23 06:37:00,
2013-01-23 01:42:00,54.7,37.9,30.21,NNE,22,3.1,3.6,53,0.00,,---,0.00,VWS V14.00,2013-01-23 06:42:00,
2013-01-23 01:48:00,54.7,37.4,30.21,NNE,22,1.3,2.7,52,0.00,,---,0.00,VWS V14.00,2013-01-23 06:48:00,
2013-01-23 01:53:00,54.7,37.4,30.21,NNE,22,4.3,4.3,52,0.00,,---,0.00,VWS V14.00,2013-01-23 06:53:00,
2013-01-23 02:00:00,54.7,37.4,30.21,NNE,22,2.5,3.6,52,0.00,,---,0.00,VWS V14.00,2013-01-23 07:00:00,
2013-01-23 02:05:00,54.5,37.2,30.24,NNE,22,3.4,3.4,52,0.00,,---,0.00,VWS V14.00,2013-01-23 07:05:00,
2013-01-23 02:10:00,54.5,36.8,30.24,NNE,22,2.5,2.5,51,0.00,,---,0.00,VWS V14.00,2013-01-23 07:10:00,
2013-01-23 02:16:00,54.3,36.1,30.24,NE,45,2.0,3.1,50,0.00,,---,0.00,VWS V14.00,2013-01-23 07:16:00,
2013-01-23 02:21:00,54.1,36.4,30.24,NNE,22,2.7,2.7,51,0.00,,---,0.00,VWS V14.00,2013-01-23 07:21:00,
2013-01-23 02:26:00,54.1,35.9,30.24,NNE,22,2.9,2.9,50,0.00,,---,0.00,VWS V14.00,2013-01-23 07:26:00,
2013-01-23 02:32:00,54.0,35.8,30.21,NNE,22,2.7,2.7,50,0.00,,---,0.00,VWS V14.00,2013-01-23 07:32:00,
2013-01-23 02:38:00,53.8,35.6,30.21,NNE,22,3.1,3.1,50,0.00,,---,0.00,VWS V14.00,2013-01-23 07:38:00,
2013-01-23 02:43:00,53.8,36.1,30.21,NNE,22,2.5,2.7,51,0.00,,---,0.00,VWS V14.00,2013-01-23 07:43:00,
2013-01-23 02:48:00,53.8,35.6,30.24,ENE,68,2.7,3.1,50,0.00,,---,0.00,VWS V14.00,2013-01-23 07:48:00,
2013-01-23 02:54:00,53.8,36.1,30.24,NE,45,2.7,3.1,51,0.00,,---,0.00,VWS V14.00,2013-01-23 07:54:00,
2013-01-23 03:00:00,53.6,35.4,30.24,NNW,338,2.9,3.1,50,0.00,,---,0.00,VWS V14.00,2013-01-23 08:00:00,
2013-01-23 03:05:00,53.6,35.4,30.24,NNE,22,4.3,4.3,50,0.00,,---,0.00,VWS V14.00,2013-01-23 08:05:00,
2013-01-23 03:10:00,53.6,34.9,30.24,North,0,5.6,5.6,49,0.00,,---,0.00,VWS V14.00,2013-01-23 08:10:00,
2013-01-23 03:16:00,53.4,34.8,30.24,ENE,68,4.7,4.7,49,0.00,,---,0.00,VWS V14.00,2013-01-23 08:16:00,
2013-01-23 03:22:00,53.2,34.6,30.24,NNE,22,3.4,4.0,49,0.00,,---,0.00,VWS V14.00,2013-01-23 08:22:00,
2013-01-23 03:27:00,53.2,34.6,30.24,NNE,22,3.6,3.6,49,0.00,,---,0.00,VWS V14.00,2013-01-23 08:27:00,
2013-01-23 03:32:00,53.2,34.6,30.24,NNW,338,4.9,6.0,49,0.00,,---,0.00,VWS V14.00,2013-01-23 08:32:00,
2013-01-23 03:38:00,53.1,34.4,30.24,NNE,22,3.1,4.9,49,0.00,,---,0.00,VWS V14.00,2013-01-23 08:38:00,
2013-01-23 03:44:00,53.1,34.4,30.24,NNE,22,3.1,3.6,49,0.00,,---,0.00,VWS V14.00,2013-01-23 08:44:00,
2013-01-23 03:49:00,52.9,34.3,30.24,NNE,22,3.8,5.4,49,0.00,,---,0.00,VWS V14.00,2013-01-23 08:49:00,
2013-01-23 03:54:00,52.9,34.3,30.24,North,0,3.1,3.4,49,0.00,,---,0.00,VWS V14.00,2013-01-23 08:54:00,
2013-01-23 04:00:00,52.7,34.1,30.24,NNE,22,2.5,2.7,49,0.00,,---,0.00,VWS V14.00,2013-01-23 09:00:00,
2013-01-23 04:05:00,52.7,34.1,30.24,NE,45,2.5,2.5,49,0.00,,---,0.00,VWS V14.00,2013-01-23 09:05:00,
2013-01-23 04:10:00,52.5,33.9,30.24,NNE,22,4.3,4.3,49,0.00,,---,0.00,VWS V14.00,2013-01-23 09:10:00,
2013-01-23 04:15:00,52.5,33.9,30.24,NNW,338,1.3,1.6,49,0.00,,---,0.00,VWS V14.00,2013-01-23 09:15:00,
2013-01-23 04:20:00,52.3,33.8,30.24,NNE,22,3.4,4.9,49,0.00,,---,0.00,VWS V14.00,2013-01-23 09:20:00,
2013-01-23 04:25:00,52.3,33.8,30.24,NE,45,2.9,4.0,49,0.00,,---,0.00,VWS V14.00,2013-01-23 09:25:00,
2013-01-23 04:30:00,52.3,33.2,30.24,NNW,338,2.9,2.9,48,0.00,,---,0.00,VWS V14.00,2013-01-23 09:30:00,
2013-01-23 04:36:00,52.3,33.8,30.24,ENE,68,1.6,3.4,49,0.00,,---,0.00,VWS V14.00,2013-01-23 09:36:00,
2013-01-23 04:41:00,52.2,33.1,30.24,NNW,338,4.3,4.9,48,0.00,,---,0.00,VWS V14.00,2013-01-23 09:41:00,
2013-01-23 04:48:00,52.2,33.1,30.24,NNE,22,3.1,3.6,48,0.00,,---,0.00,VWS V14.00,2013-01-23 09:48:00,
2013-01-23 04:53:00,51.8,32.8,30.24,North,0,1.3,1.3,48,0.00,,---,0.00,VWS V14.00,2013-01-23 09:53:00,
2013-01-23 05:00:00,51.6,33.1,30.24,NNE,22,4.9,4.9,49,0.00,,---,0.00,VWS V14.00,2013-01-23 10:00:00,
2013-01-23 05:05:00,51.4,33.4,30.24,NNE,22,2.5,2.5,50,0.00,,---,0.00,VWS V14.00,2013-01-23 10:05:00,
2013-01-23 05:10:00,51.3,33.3,30.24,NNE,22,4.5,5.4,50,0.00,,---,0.00,VWS V14.00,2013-01-23 10:10:00,
2013-01-23 05:16:00,51.4,32.9,30.24,NE,45,3.8,5.8,49,0.00,,---,0.00,VWS V14.00,2013-01-23 10:16:00,
2013-01-23 05:21:00,51.4,32.9,30.24,NNE,22,4.9,4.9,49,0.00,,---,0.00,VWS V14.00,2013-01-23 10:21:00,
2013-01-23 05:27:00,51.4,32.4,30.24,NNE,22,3.4,5.6,48,0.00,,---,0.00,VWS V14.00,2013-01-23 10:27:00,
2013-01-23 05:32:00,51.4,32.4,30.24,NNE,22,7.8,7.8,48,0.00,,---,0.00,VWS V14.00,2013-01-23 10:32:00,
2013-01-23 05:37:00,51.6,32.1,30.24,North,0,4.3,8.1,47,0.00,,---,0.00,VWS V14.00,2013-01-23 10:37:00,
2013-01-23 05:42:00,51.6,32.1,30.24,NNE,22,4.3,4.3,47,0.00,,---,0.00,VWS V14.00,2013-01-23 10:42:00,
2013-01-23 05:48:00,51.4,31.9,30.24,NNE,22,5.8,5.8,47,0.00,,---,0.00,VWS V14.00,2013-01-23 10:48:00,
2013-01-23 05:54:00,51.3,32.3,30.24,NE,45,4.3,6.3,48,0.00,,---,0.00,VWS V14.00,2013-01-23 10:54:00,
2013-01-23 05:59:00,51.3,32.3,30.24,NE,45,5.4,5.6,48,0.00,,---,0.00,VWS V14.00,2013-01-23 10:59:00,
2013-01-23 06:04:00,51.1,32.6,30.27,NE,45,3.6,4.7,49,0.00,,---,0.00,VWS V14.00,2013-01-23 11:04:00,
2013-01-23 06:10:00,50.9,32.9,30.27,NNE,22,3.4,3.4,50,0.00,,---,0.00,VWS V14.00,2013-01-23 11:10:00,
2013-01-23 06:15:00,50.9,33.4,30.27,NNE,22,2.7,3.4,51,0.00,,---,0.00,VWS V14.00,2013-01-23 11:15:00,
2013-01-23 06:20:00,50.7,33.8,30.27,NE,45,3.4,3.4,52,0.00,,---,0.00,VWS V14.00,2013-01-23 11:20:00,
2013-01-23 06:25:00,50.9,33.9,30.27,ENE,68,2.5,3.8,52,0.00,,---,0.00,VWS V14.00,2013-01-23 11:25:00,
2013-01-23 06:30:00,50.7,34.2,30.27,NE,45,2.9,4.9,53,0.00,,---,0.00,VWS V14.00,2013-01-23 11:30:00,
2013-01-23 06:35:00,50.7,34.7,30.27,NNE,22,3.6,4.9,54,0.00,,---,0.00,VWS V14.00,2013-01-23 11:35:00,
2013-01-23 06:40:00,50.7,34.2,30.27,ENE,68,1.3,2.9,53,0.00,,---,0.00,VWS V14.00,2013-01-23 11:40:00,
2013-01-23 06:46:00,50.5,34.1,30.27,NNE,22,4.9,4.9,53,0.00,,---,0.00,VWS V14.00,2013-01-23 11:46:00,
2013-01-23 06:51:00,50.5,34.5,30.27,NNE,22,4.3,4.3,54,0.00,,---,0.00,VWS V14.00,2013-01-23 11:51:00,
2013-01-23 06:56:00,50.4,33.9,30.27,NE,45,4.0,7.4,53,0.00,,---,0.00,VWS V14.00,2013-01-23 11:56:00,
2013-01-23 07:01:00,50.4,33.9,30.27,NNE,22,3.8,3.8,53,0.00,,---,0.00,VWS V14.00,2013-01-23 12:01:00,
2013-01-23 07:07:00,50.4,34.4,30.27,NNE,22,4.0,5.6,54,0.00,,---,0.00,VWS V14.00,2013-01-23 12:07:00,
2013-01-23 07:12:00,50.4,34.4,30.27,NE,45,6.3,6.3,54,0.00,,---,0.00,VWS V14.00,2013-01-23 12:12:00,
2013-01-23 07:18:00,50.5,34.5,30.27,NNE,22,5.4,7.6,54,0.00,,---,0.00,VWS V14.00,2013-01-23 12:18:00,
2013-01-23 07:23:00,50.5,34.5,30.27,NNE,22,4.9,4.9,54,0.00,,---,0.00,VWS V14.00,2013-01-23 12:23:00,
2013-01-23 07:28:00,50.5,34.1,30.27,NNE,22,4.3,4.3,53,0.00,,---,0.00,VWS V14.00,2013-01-23 12:28:00,
2013-01-23 07:33:00,50.4,34.4,30.27,NE,45,3.8,5.4,54,0.00,,---,0.00,VWS V14.00,2013-01-23 12:33:00,
2013-01-23 07:38:00,50.4,34.4,30.27,ENE,68,3.6,3.6,54,0.00,,---,0.00,VWS V14.00,2013-01-23 12:38:00,
2013-01-23 07:43:00,50.4,34.4,30.27,ENE,68,6.3,6.3,54,0.00,,---,0.00,VWS V14.00,2013-01-23 12:43:00,
2013-01-23 07:49:00,50.4,33.9,30.30,ENE,68,4.0,5.4,53,0.00,,---,0.00,VWS V14.00,2013-01-23 12:49:00,
2013-01-23 07:54:00,50.4,33.9,30.30,NNE,22,4.3,5.4,53,0.00,,---,0.00,VWS V14.00,2013-01-23 12:54:00,
2013-01-23 08:00:00,50.4,33.4,30.30,NNW,338,6.0,6.0,52,0.00,,---,0.00,VWS V14.00,2013-01-23 13:00:00,
2013-01-23 08:05:00,50.5,33.6,30.30,NNE,22,4.3,6.0,52,0.00,,---,0.00,VWS V14.00,2013-01-23 13:05:00,
2013-01-23 08:10:00,50.7,33.3,30.30,ENE,68,5.4,5.4,51,0.00,,---,0.00,VWS V14.00,2013-01-23 13:10:00,
2013-01-23 08:15:00,50.9,32.9,30.30,NE,45,2.2,4.9,50,0.00,,---,0.00,VWS V14.00,2013-01-23 13:15:00,
2013-01-23 08:20:00,51.3,33.3,30.30,ENE,68,6.3,6.3,50,0.00,,---,0.00,VWS V14.00,2013-01-23 13:20:00,
2013-01-23 08:26:00,51.4,32.9,30.30,NNE,22,5.4,5.8,49,0.00,,---,0.00,VWS V14.00,2013-01-23 13:26:00,
2013-01-23 08:31:00,51.6,33.1,30.30,North,0,5.4,6.0,49,0.00,,---,0.00,VWS V14.00,2013-01-23 13:31:00,
2013-01-23 08:36:00,52.0,32.4,30.30,NNE,22,6.5,8.5,47,0.00,,---,0.00,VWS V14.00,2013-01-23 13:36:00,
2013-01-23 08:41:00,52.5,32.3,30.30,ENE,68,5.4,6.7,46,0.00,,---,0.00,VWS V14.00,2013-01-23 13:41:00,
2013-01-23 08:46:00,52.9,33.2,30.30,East,90,4.9,5.4,47,0.00,,---,0.00,VWS V14.00,2013-01-23 13:46:00,
2013-01-23 08:52:00,53.4,32.1,30.30,ENE,68,5.6,6.5,44,0.00,,---,0.00,VWS V14.00,2013-01-23 13:52:00,
2013-01-23 08:57:00,53.8,32.4,30.30,NNE,22,5.6,5.8,44,0.00,,---,0.00,VWS V14.00,2013-01-23 13:57:00,
2013-01-23 09:02:00,54.0,32.6,30.30,ENE,68,4.9,6.0,44,0.00,,---,0.00,VWS V14.00,2013-01-23 14:02:00,
2013-01-23 09:07:00,54.3,33.5,30.30,ENE,68,4.3,5.6,45,0.00,,---,0.00,VWS V14.00,2013-01-23 14:07:00,
2013-01-23 09:13:00,54.7,33.2,30.30,ENE,68,6.0,6.0,44,0.00,,---,0.00,VWS V14.00,2013-01-23 14:13:00,
2013-01-23 09:18:00,55.0,33.0,30.30,NNE,22,4.7,8.7,43,0.00,,---,0.00,VWS V14.00,2013-01-23 14:18:00,
2013-01-23 09:23:00,55.2,32.0,30.30,NE,45,5.6,8.5,41,0.00,,---,0.00,VWS V14.00,2013-01-23 14:23:00,
2013-01-23 09:28:00,55.6,31.7,30.30,NE,45,7.8,7.8,40,0.00,,---,0.00,VWS V14.00,2013-01-23 14:28:00,
2013-01-23 09:34:00,55.9,32.6,30.30,ENE,68,8.7,8.7,41,0.00,,---,0.00,VWS V14.00,2013-01-23 14:34:00,
2013-01-23 09:39:00,56.1,32.2,30.30,NE,45,8.7,8.7,40,0.00,,---,0.00,VWS V14.00,2013-01-23 14:39:00,
2013-01-23 09:44:00,56.3,32.9,30.30,ENE,68,8.7,8.7,41,0.00,,---,0.00,VWS V14.00,2013-01-23 14:44:00,
2013-01-23 09:50:00,56.7,32.0,30.30,ENE,68,6.3,9.8,39,0.00,,---,0.00,VWS V14.00,2013-01-23 14:50:00,
2013-01-23 09:55:00,57.2,32.5,30.30,ENE,68,6.5,6.5,39,0.00,,---,0.00,VWS V14.00,2013-01-23 14:55:00,
2013-01-23 10:01:00,57.7,31.7,30.33,East,90,6.5,6.5,37,0.00,,---,0.00,VWS V14.00,2013-01-23 15:01:00,
2013-01-23 10:06:00,58.1,32.7,30.33,North,0,8.1,8.5,38,0.00,,---,0.00,VWS V14.00,2013-01-23 15:06:00,
2013-01-23 10:12:00,58.5,33.0,30.33,NE,45,5.6,6.3,38,0.00,,---,0.00,VWS V14.00,2013-01-23 15:12:00,
2013-01-23 10:17:00,58.8,33.3,30.33,ENE,68,7.6,7.6,38,0.00,,---,0.00,VWS V14.00,2013-01-23 15:17:00,
2013-01-23 10:22:00,59.2,33.0,30.33,NNE,22,7.6,7.6,37,0.00,,---,0.00,VWS V14.00,2013-01-23 15:22:00,
2013-01-23 10:27:00,59.5,33.3,30.33,NE,45,7.6,7.6,37,0.00,,---,0.00,VWS V14.00,2013-01-23 15:27:00,
2013-01-23 10:33:00,60.3,33.9,30.33,NNE,22,4.0,4.0,37,0.00,,---,0.00,VWS V14.00,2013-01-23 15:33:00,
2013-01-23 10:38:00,60.6,33.5,30.33,NE,45,6.3,6.3,36,0.00,,---,0.00,VWS V14.00,2013-01-23 15:38:00,
2013-01-23 10:44:00,61.0,34.5,30.33,North,0,4.3,4.3,37,0.00,,---,0.00,VWS V14.00,2013-01-23 15:44:00,
2013-01-23 10:49:00,61.5,34.3,30.33,NNE,22,4.3,6.3,36,0.00,,---,0.00,VWS V14.00,2013-01-23 15:49:00,
2013-01-23 10:55:00,62.1,34.1,30.33,NNE,22,5.4,5.4,35,0.00,,---,0.00,VWS V14.00,2013-01-23 15:55:00,
2013-01-23 11:01:00,62.4,34.4,30.33,North,0,7.8,7.8,35,0.00,,---,0.00,VWS V14.00,2013-01-23 16:01:00,
2013-01-23 11:07:00,63.0,34.2,30.33,NNE,22,6.3,6.3,34,0.00,,---,0.00,VWS V14.00,2013-01-23 16:07:00,
2013-01-23 11:13:00,63.3,34.5,30.33,ENE,68,3.8,3.8,34,0.00,,---,0.00,VWS V14.00,2013-01-23 16:13:00,
2013-01-23 11:18:00,63.7,35.5,30.33,NNE,22,2.7,5.8,35,0.00,,---,0.00,VWS V14.00,2013-01-23 16:18:00,
2013-01-23 11:23:00,64.0,35.9,30.33,NE,45,3.8,3.8,35,0.00,,---,0.00,VWS V14.00,2013-01-23 16:23:00,
2013-01-23 11:29:00,64.6,34.8,30.33,NE,45,4.9,4.9,33,0.00,,---,0.00,VWS V14.00,2013-01-23 16:29:00,
2013-01-23 11:34:00,65.1,35.3,30.30,NNW,338,5.8,5.8,33,0.00,,---,0.00,VWS V14.00,2013-01-23 16:34:00,
2013-01-23 11:39:00,65.3,35.5,30.30,NNE,22,5.8,5.8,33,0.00,,---,0.00,VWS V14.00,2013-01-23 16:39:00,
2013-01-23 11:44:00,65.7,35.8,30.30,NNW,338,4.0,5.6,33,0.00,,---,0.00,VWS V14.00,2013-01-23 16:44:00,
2013-01-23 11:50:00,66.6,36.6,30.30,NE,45,2.7,2.7,33,0.00,,---,0.00,VWS V14.00,2013-01-23 16:50:00,
2013-01-23 11:55:00,66.7,36.8,30.30,NNE,22,5.8,5.8,33,0.00,,---,0.00,VWS V14.00,2013-01-23 16:55:00,
2013-01-23 12:01:00,66.9,36.9,30.30,NNE,22,6.0,6.0,33,0.00,,---,0.00,VWS V14.00,2013-01-23 17:01:00,
2013-01-23 12:06:00,67.3,36.4,30.30,NNE,22,2.9,4.7,32,0.00,,---,0.00,VWS V14.00,2013-01-23 17:06:00,
2013-01-23 12:11:00,68.0,37.1,30.30,NNE,22,4.0,4.0,32,0.00,,---,0.00,VWS V14.00,2013-01-23 17:11:00,
2013-01-23 12:16:00,68.4,37.4,30.27,NNW,338,2.2,2.7,32,0.00,,---,0.00,VWS V14.00,2013-01-23 17:16:00,
2013-01-23 12:22:00,69.3,38.2,30.27,NNE,22,0.0,3.4,32,0.00,,---,0.00,VWS V14.00,2013-01-23 17:22:00,
2013-01-23 12:27:00,70.0,38.8,30.27,NE,45,2.9,3.4,32,0.00,,---,0.00,VWS V14.00,2013-01-23 17:27:00,
2013-01-23 12:32:00,70.0,37.2,30.27,NNE,22,3.6,3.8,30,0.00,,---,0.00,VWS V14.00,2013-01-23 17:32:00,
2013-01-23 12:37:00,70.5,39.3,30.27,WNW,292,3.1,6.0,32,0.00,,---,0.00,VWS V14.00,2013-01-23 17:37:00,
2013-01-23 12:42:00,69.4,39.1,30.27,NW,315,5.8,5.8,33,0.00,,---,0.00,VWS V14.00,2013-01-23 17:42:00,
2013-01-23 12:48:00,69.6,39.3,30.27,NNW,338,2.5,2.5,33,0.00,,---,0.00,VWS V14.00,2013-01-23 17:48:00,
2013-01-23 12:53:00,68.9,37.8,30.27,NNW,338,5.4,6.0,32,0.00,,---,0.00,VWS V14.00,2013-01-23 17:53:00,
2013-01-23 12:59:00,68.4,37.4,30.27,NNW,338,4.9,6.5,32,0.00,,---,0.00,VWS V14.00,2013-01-23 17:59:00,
2013-01-23 13:05:00,68.4,38.2,30.27,NNW,338,6.0,6.0,33,0.00,,---,0.00,VWS V14.00,2013-01-23 18:05:00,
2013-01-23 13:10:00,68.4,37.4,30.27,NNW,338,6.5,6.5,32,0.00,,---,0.00,VWS V14.00,2013-01-23 18:10:00,
2013-01-23 13:16:00,68.2,37.2,30.27,North,0,3.8,3.8,32,0.00,,---,0.00,VWS V14.00,2013-01-23 18:16:00,
2013-01-23 13:21:00,68.5,38.3,30.27,NW,315,3.6,6.3,33,0.00,,---,0.00,VWS V14.00,2013-01-23 18:21:00,
2013-01-23 13:27:00,68.7,37.7,30.27,NNW,338,6.3,10.1,32,0.00,,---,0.00,VWS V14.00,2013-01-23 18:27:00,
2013-01-23 13:32:00,68.5,38.3,30.24,North,0,6.3,6.5,33,0.00,,---,0.00,VWS V14.00,2013-01-23 18:32:00,
2013-01-23 13:38:00,69.1,38.8,30.24,NNW,338,6.3,6.3,33,0.00,,---,0.00,VWS V14.00,2013-01-23 18:38:00,
2013-01-23 13:44:00,68.2,38.0,30.24,NNW,338,5.8,7.6,33,0.00,,---,0.00,VWS V14.00,2013-01-23 18:44:00,
2013-01-23 13:50:00,68.4,38.2,30.24,NNW,338,6.3,6.5,33,0.00,,---,0.00,VWS V14.00,2013-01-23 18:50:00,
2013-01-23 13:55:00,68.2,38.0,30.24,NW,315,9.6,9.6,33,0.00,,---,0.00,VWS V14.00,2013-01-23 18:55:00,
2013-01-23 14:00:00,68.2,38.0,30.24,NNW,338,4.7,4.7,33,0.00,,---,0.00,VWS V14.00,2013-01-23 19:00:00,
2013-01-23 14:05:00,68.4,38.2,30.24,North,0,5.4,7.6,33,0.00,,---,0.00,VWS V14.00,2013-01-23 19:05:00,
2013-01-23 14:10:00,68.7,38.5,30.24,NNE,22,3.8,5.8,33,0.00,,---,0.00,VWS V14.00,2013-01-23 19:10:00,
2013-01-23 14:15:00,68.9,38.6,30.24,WNW,292,4.9,4.9,33,0.00,,---,0.00,VWS V14.00,2013-01-23 19:15:00,
2013-01-23 14:21:00,68.5,38.3,30.24,NNW,338,8.1,8.1,33,0.00,,---,0.00,VWS V14.00,2013-01-23 19:21:00,
2013-01-23 14:26:00,68.9,38.6,30.24,WNW,292,8.1,8.1,33,0.00,,---,0.00,VWS V14.00,2013-01-23 19:26:00,
2013-01-23 14:31:00,68.5,38.3,30.24,NNW,338,6.5,6.5,33,0.00,,---,0.00,VWS V14.00,2013-01-23 19:31:00,
2013-01-23 14:37:00,68.4,38.2,30.24,NNW,338,7.8,8.5,33,0.00,,---,0.00,VWS V14.00,2013-01-23 19:37:00,
2013-01-23 14:42:00,68.4,38.2,30.24,NNW,338,4.3,5.4,33,0.00,,---,0.00,VWS V14.00,2013-01-23 19:42:00,
2013-01-23 14:47:00,68.5,38.3,30.24,NNE,22,3.1,3.1,33,0.00,,---,0.00,VWS V14.00,2013-01-23 19:47:00,
2013-01-23 14:52:00,68.7,38.5,30.24,NNE,22,5.4,5.4,33,0.00,,---,0.00,VWS V14.00,2013-01-23 19:52:00,
2013-01-23 14:57:00,69.1,38.8,30.24,NW,315,6.0,6.0,33,0.00,,---,0.00,VWS V14.00,2013-01-23 19:57:00,
2013-01-23 15:02:00,69.1,38.0,30.24,NNW,338,6.0,6.0,32,0.00,,---,0.00,VWS V14.00,2013-01-23 20:02:00,
2013-01-23 15:08:00,69.4,38.3,30.21,NNW,338,3.4,5.8,32,0.00,,---,0.00,VWS V14.00,2013-01-23 20:08:00,
2013-01-23 15:13:00,69.6,38.5,30.21,NNW,338,4.3,4.3,32,0.00,,---,0.00,VWS V14.00,2013-01-23 20:13:00,
2013-01-23 15:19:00,69.4,38.3,30.21,NNW,338,4.0,4.7,32,0.00,,---,0.00,VWS V14.00,2013-01-23 20:19:00,
2013-01-23 15:25:00,69.8,38.6,30.21,WNW,292,5.4,5.4,32,0.00,,---,0.00,VWS V14.00,2013-01-23 20:25:00,
2013-01-23 15:30:00,69.3,38.2,30.21,NW,315,3.6,3.6,32,0.00,,---,0.00,VWS V14.00,2013-01-23 20:30:00,
2013-01-23 15:35:00,69.4,38.3,30.21,North,0,5.4,5.4,32,0.00,,---,0.00,VWS V14.00,2013-01-23 20:35:00,
2013-01-23 15:40:00,69.4,38.3,30.21,WNW,292,5.8,5.8,32,0.00,,---,0.00,VWS V14.00,2013-01-23 20:40:00,
2013-01-23 15:46:00,69.4,39.1,30.21,West,270,3.8,5.6,33,0.00,,---,0.00,VWS V14.00,2013-01-23 20:46:00,
2013-01-23 15:51:00,69.1,38.8,30.21,NW,315,4.0,5.8,33,0.00,,---,0.00,VWS V14.00,2013-01-23 20:51:00,
2013-01-23 15:56:00,69.1,38.8,30.21,West,270,3.4,6.5,33,0.00,,---,0.00,VWS V14.00,2013-01-23 20:56:00,
2013-01-23 16:02:00,68.9,38.6,30.21,North,0,3.6,5.4,33,0.00,,---,0.00,VWS V14.00,2013-01-23 21:02:00,
2013-01-23 16:07:00,68.7,38.5,30.21,NNW,338,3.4,3.6,33,0.00,,---,0.00,VWS V14.00,2013-01-23 21:07:00,
2013-01-23 16:12:00,68.7,38.5,30.21,NNW,338,4.3,5.8,33,0.00,,---,0.00,VWS V14.00,2013-01-23 21:12:00,
2013-01-23 16:17:00,68.5,38.3,30.21,NNW,338,4.3,4.3,33,0.00,,---,0.00,VWS V14.00,2013-01-23 21:17:00,
2013-01-23 16:23:00,68.0,37.8,30.21,NNW,338,3.1,4.9,33,0.00,,---,0.00,VWS V14.00,2013-01-23 21:23:00,
2013-01-23 16:28:00,67.5,38.1,30.21,NNW,338,5.4,5.4,34,0.00,,---,0.00,VWS V14.00,2013-01-23 21:28:00,
2013-01-23 16:33:00,66.9,38.4,30.21,North,0,3.1,6.3,35,0.00,,---,0.00,VWS V14.00,2013-01-23 21:33:00,
2013-01-23 16:39:00,66.4,38.6,30.21,NNW,338,6.3,6.7,36,0.00,,---,0.00,VWS V14.00,2013-01-23 21:39:00,
2013-01-23 16:44:00,65.7,39.4,30.21,NW,315,4.9,4.9,38,0.00,,---,0.00,VWS V14.00,2013-01-23 21:44:00,
2013-01-23 16:49:00,65.1,38.9,30.24,NW,315,4.9,4.9,38,0.00,,---,0.00,VWS V14.00,2013-01-23 21:49:00,
2013-01-23 16:54:00,64.8,39.2,30.24,WNW,292,7.8,7.8,39,0.00,,---,0.00,VWS V14.00,2013-01-23 21:54:00,
2013-01-23 17:00:00,64.6,39.7,30.24,NNW,338,3.1,4.0,40,0.00,,---,0.00,VWS V14.00,2013-01-23 22:00:00,
2013-01-23 17:05:00,64.2,40.0,30.21,WNW,292,5.4,5.4,41,0.00,,---,0.00,VWS V14.00,2013-01-23 22:05:00,
2013-01-23 17:10:00,64.0,39.9,30.21,NNW,338,6.3,6.5,41,0.00,,---,0.00,VWS V14.00,2013-01-23 22:10:00,
2013-01-23 17:16:00,63.9,40.3,30.21,NNW,338,5.8,5.8,42,0.00,,---,0.00,VWS V14.00,2013-01-23 22:16:00,
2013-01-23 17:21:00,63.7,40.8,30.21,NNW,338,4.3,4.3,43,0.00,,---,0.00,VWS V14.00,2013-01-23 22:21:00,
2013-01-23 17:26:00,63.5,41.2,30.21,NNW,338,1.3,5.8,44,0.00,,---,0.00,VWS V14.00,2013-01-23 22:26:00,
2013-01-23 17:31:00,63.1,40.9,30.24,NNW,338,2.9,2.9,44,0.00,,---,0.00,VWS V14.00,2013-01-23 22:31:00,
2013-01-23 17:36:00,62.8,41.2,30.24,NNW,338,3.4,4.9,45,0.00,,---,0.00,VWS V14.00,2013-01-23 22:36:00,
2013-01-23 17:41:00,62.6,41.5,30.24,North,0,3.6,3.8,46,0.00,,---,0.00,VWS V14.00,2013-01-23 22:41:00,
2013-01-23 17:46:00,62.2,41.8,30.24,NNW,338,4.9,4.9,47,0.00,,---,0.00,VWS V14.00,2013-01-23 22:46:00,
2013-01-23 17:51:00,62.2,42.3,30.24,North,0,4.3,4.3,48,0.00,,---,0.00,VWS V14.00,2013-01-23 22:51:00,
2013-01-23 17:56:00,61.9,41.5,30.24,NNW,338,3.4,3.4,47,0.00,,---,0.00,VWS V14.00,2013-01-23 22:56:00,
2013-01-23 18:02:00,61.7,41.3,30.24,NNW,338,3.4,3.8,47,0.00,,---,0.00,VWS V14.00,2013-01-23 23:02:00,
2013-01-23 18:07:00,61.3,41.5,30.24,NNW,338,3.4,3.4,48,0.00,,---,0.00,VWS V14.00,2013-01-23 23:07:00,
2013-01-23 18:12:00,61.2,41.9,30.24,North,0,2.0,2.2,49,0.00,,---,0.00,VWS V14.00,2013-01-23 23:12:00,
2013-01-23 18:17:00,61.0,41.2,30.24,NNE,22,2.0,2.7,48,0.00,,---,0.00,VWS V14.00,2013-01-23 23:17:00,
2013-01-23 18:22:00,60.8,41.0,30.24,NNW,338,4.3,4.3,48,0.00,,---,0.00,VWS V14.00,2013-01-23 23:22:00,
2013-01-23 18:27:00,60.4,41.2,30.24,North,0,2.9,4.0,49,0.00,,---,0.00,VWS V14.00,2013-01-23 23:27:00,
2013-01-23 18:32:00,60.3,41.6,30.24,NNW,338,2.9,3.6,50,0.00,,---,0.00,VWS V14.00,2013-01-23 23:32:00,
2013-01-23 18:38:00,60.1,41.4,30.24,NNW,338,4.0,4.0,50,0.00,,---,0.00,VWS V14.00,2013-01-23 23:38:00,
2013-01-23 18:43:00,59.9,41.2,30.24,NNW,338,2.0,4.0,50,0.00,,---,0.00,VWS V14.00,2013-01-23 23:43:00,
2013-01-23 18:49:00,59.9,41.2,30.24,NNW,338,2.9,2.9,50,0.00,,---,0.00,VWS V14.00,2013-01-23 23:49:00,
2013-01-23 18:54:00,59.5,41.4,30.24,NNW,338,1.6,2.5,51,0.00,,---,0.00,VWS V14.00,2013-01-23 23:54:00,
2013-01-23 19:00:00,59.5,41.9,30.24,NNW,338,5.4,5.4,52,0.00,,---,0.00,VWS V14.00,2013-01-24 00:00:00,
2013-01-23 19:05:00,59.4,42.7,30.24,NNW,338,3.4,3.4,54,0.00,,---,0.00,VWS V14.00,2013-01-24 00:05:00,
2013-01-23 19:10:00,59.2,42.6,30.24,NNW,338,2.7,2.9,54,0.00,,---,0.00,VWS V14.00,2013-01-24 00:10:00,
2013-01-23 19:15:00,59.2,43.0,30.24,NNW,338,2.5,3.4,55,0.00,,---,0.00,VWS V14.00,2013-01-24 00:15:00,
2013-01-23 19:20:00,59.2,43.0,30.27,NNW,338,3.8,3.8,55,0.00,,---,0.00,VWS V14.00,2013-01-24 00:20:00,
2013-01-23 19:25:00,59.2,43.0,30.27,NNW,338,3.4,3.4,55,0.00,,---,0.00,VWS V14.00,2013-01-24 00:25:00,
2013-01-23 19:30:00,59.0,43.3,30.27,North,0,2.7,3.8,56,0.00,,---,0.00,VWS V14.00,2013-01-24 00:30:00,
2013-01-23 19:36:00,59.0,43.8,30.27,North,0,4.3,4.3,57,0.00,,---,0.00,VWS V14.00,2013-01-24 00:36:00,
2013-01-23 19:41:00,58.8,43.6,30.27,North,0,2.9,2.9,57,0.00,,---,0.00,VWS V14.00,2013-01-24 00:41:00,
2013-01-23 19:46:00,58.8,44.1,30.27,NNE,22,0.9,0.9,58,0.00,,---,0.00,VWS V14.00,2013-01-24 00:46:00,
2013-01-23 19:51:00,58.6,45.2,30.27,NNW,338,2.5,3.1,61,0.00,,---,0.00,VWS V14.00,2013-01-24 00:51:00,
2013-01-23 19:57:00,58.5,44.6,30.27,NNE,22,3.4,3.4,60,0.00,,---,0.00,VWS V14.00,2013-01-24 00:57:00,
2013-01-23 20:02:00,58.3,43.1,30.27,NNW,338,3.4,3.4,57,0.00,,---,0.00,VWS V14.00,2013-01-24 01:02:00,
2013-01-23 20:07:00,58.1,45.2,30.27,North,0,1.3,1.3,62,0.00,,---,0.00,VWS V14.00,2013-01-24 01:07:00,
2013-01-23 20:12:00,57.9,43.2,30.27,NNE,22,2.0,3.1,58,0.00,,---,0.00,VWS V14.00,2013-01-24 01:12:00,
2013-01-23 20:18:00,57.7,44.4,30.27,NNE,22,2.5,2.5,61,0.00,,---,0.00,VWS V14.00,2013-01-24 01:18:00,
2013-01-23 20:23:00,57.6,44.2,30.27,NNE,22,2.5,2.5,61,0.00,,---,0.00,VWS V14.00,2013-01-24 01:23:00,
2013-01-23 20:28:00,57.4,43.6,30.27,NNW,338,1.3,3.4,60,0.00,,---,0.00,VWS V14.00,2013-01-24 01:28:00,
2013-01-23 20:33:00,57.2,43.0,30.27,NE,45,1.6,2.9,59,0.00,,---,0.00,VWS V14.00,2013-01-24 01:33:00,
2013-01-23 20:38:00,57.2,43.5,30.27,NNE,22,1.6,1.6,60,0.00,,---,0.00,VWS V14.00,2013-01-24 01:38:00,
2013-01-23 20:43:00,57.0,42.8,30.27,North,0,1.1,1.1,59,0.00,,---,0.00,VWS V14.00,2013-01-24 01:43:00,
2013-01-23 20:49:00,56.7,42.1,30.27,NNE,22,2.0,2.7,58,0.00,,---,0.00,VWS V14.00,2013-01-24 01:49:00,
2013-01-23 20:55:00,56.7,42.5,30.27,NE,45,2.0,2.2,59,0.00,,---,0.00,VWS V14.00,2013-01-24 01:55:00,
2013-01-23 21:00:00,56.5,41.9,30.27,NNE,22,0.0,0.0,58,0.00,,---,0.00,VWS V14.00,2013-01-24 02:00:00,
2013-01-23 21:06:00,56.3,41.7,30.27,NE,45,0.0,2.0,58,0.00,,---,0.00,VWS V14.00,2013-01-24 02:06:00,
2013-01-23 21:11:00,56.1,41.6,30.27,NNE,22,0.0,0.0,58,0.00,,---,0.00,VWS V14.00,2013-01-24 02:11:00,
2013-01-23 21:16:00,55.9,41.4,30.27,NE,45,0.0,0.0,58,0.00,,---,0.00,VWS V14.00,2013-01-24 02:16:00,
2013-01-23 21:21:00,55.8,41.2,30.27,NE,45,0.0,0.0,58,0.00,,---,0.00,VWS V14.00,2013-01-24 02:21:00,
2013-01-23 21:26:00,55.0,41.8,30.27,NNE,22,1.6,2.5,61,0.00,,---,0.00,VWS V14.00,2013-01-24 02:26:00,
2013-01-23 21:31:00,54.9,42.1,30.27,NE,45,4.0,4.0,62,0.00,,---,0.00,VWS V14.00,2013-01-24 02:31:00,
2013-01-23 21:36:00,54.9,43.7,30.27,NNE,22,2.5,2.5,66,0.00,,---,0.00,VWS V14.00,2013-01-24 02:36:00,
2013-01-23 21:41:00,55.0,44.3,30.27,NNE,22,2.7,3.8,67,0.00,,---,0.00,VWS V14.00,2013-01-24 02:41:00,
2013-01-23 21:46:00,55.2,44.9,30.27,NNE,22,2.5,2.7,68,0.00,,---,0.00,VWS V14.00,2013-01-24 02:46:00,
2013-01-23 21:52:00,55.2,44.1,30.27,NNE,22,2.7,2.7,66,0.00,,---,0.00,VWS V14.00,2013-01-24 02:52:00,
2013-01-23 21:57:00,55.2,43.7,30.27,ENE,68,2.0,3.6,65,0.00,,---,0.00,VWS V14.00,2013-01-24 02:57:00,
2013-01-23 22:02:00,55.2,44.5,30.27,NNE,22,2.7,2.7,67,0.00,,---,0.00,VWS V14.00,2013-01-24 03:02:00,
2013-01-23 22:07:00,55.0,43.5,30.27,NNE,22,2.5,3.1,65,0.00,,---,0.00,VWS V14.00,2013-01-24 03:07:00,
2013-01-23 22:13:00,55.0,44.3,30.27,NE,45,2.5,2.5,67,0.00,,---,0.00,VWS V14.00,2013-01-24 03:13:00,
2013-01-23 22:18:00,54.9,42.9,30.27,ENE,68,2.0,2.0,64,0.00,,---,0.00,VWS V14.00,2013-01-24 03:18:00,
2013-01-23 22:23:00,54.7,42.8,30.27,ENE,68,1.6,1.6,64,0.00,,---,0.00,VWS V14.00,2013-01-24 03:23:00,
2013-01-23 22:28:00,54.7,42.8,30.27,NE,45,2.9,2.9,64,0.00,,---,0.00,VWS V14.00,2013-01-24 03:28:00,
2013-01-23 22:34:00,54.5,43.0,30.27,NNE,22,1.3,2.2,65,0.00,,---,0.00,VWS V14.00,2013-01-24 03:34:00,
2013-01-23 22:39:00,54.3,42.0,30.27,ENE,68,0.0,2.2,63,0.00,,---,0.00,VWS V14.00,2013-01-24 03:39:00,
2013-01-23 22:45:00,54.1,41.8,30.27,NE,45,1.6,1.6,63,0.00,,---,0.00,VWS V14.00,2013-01-24 03:45:00,
2013-01-23 22:50:00,54.0,42.5,30.27,NE,45,3.1,3.1,65,0.00,,---,0.00,VWS V14.00,2013-01-24 03:50:00,
2013-01-23 22:55:00,54.0,41.7,30.27,NE,45,2.5,2.9,63,0.00,,---,0.00,VWS V14.00,2013-01-24 03:55:00,
2013-01-23 23:00:00,53.8,41.9,30.27,ENE,68,2.5,2.5,64,0.00,,---,0.00,VWS V14.00,2013-01-24 04:00:00,
2013-01-23 23:05:00,53.8,41.5,30.27,ENE,68,0.0,2.5,63,0.00,,---,0.00,VWS V14.00,2013-01-24 04:05:00,
2013-01-23 23:11:00,53.4,41.2,30.27,ENE,68,2.5,2.5,63,0.00,,---,0.00,VWS V14.00,2013-01-24 04:11:00,
2013-01-23 23:16:00,53.4,41.2,30.27,ENE,68,0.0,0.0,63,0.00,,---,0.00,VWS V14.00,2013-01-24 04:16:00,
2013-01-23 23:21:00,53.4,41.6,30.27,ENE,68,0.0,0.0,64,0.00,,---,0.00,VWS V14.00,2013-01-24 04:21:00,
2013-01-23 23:27:00,53.2,41.8,30.27,NE,45,2.2,2.2,65,0.00,,---,0.00,VWS V14.00,2013-01-24 04:27:00,
2013-01-23 23:32:00,53.1,41.2,30.27,ENE,68,0.0,1.3,64,0.00,,---,0.00,VWS V14.00,2013-01-24 04:32:00,
2013-01-23 23:37:00,53.1,42.0,30.27,NE,45,2.2,2.2,66,0.00,,---,0.00,VWS V14.00,2013-01-24 04:37:00,
2013-01-23 23:42:00,53.1,42.4,30.27,NE,45,2.0,2.2,67,0.00,,---,0.00,VWS V14.00,2013-01-24 04:42:00,
2013-01-23 23:47:00,53.1,42.8,30.27,ENE,68,2.0,2.0,68,0.00,,---,0.00,VWS V14.00,2013-01-24 04:47:00,
2013-01-23 23:53:00,53.1,42.4,30.27,East,90,1.3,1.3,67,0.00,,---,0.00,VWS V14.00,2013-01-24 04:53:00,